Theta_e
318 322 327 328 329 331 334 335 338 343 344 345 345 343 341 341 341 340 339 338 338 337 335 334 332 331 331 331 330 328 328 327 322 325 327 328 328 327 328 327 327 326 326
319 323 326 328 333 337 339 342 343 344 345 344 343 341 341 341 339 340 339 338 337 334 334 333 331 331 331 330 328 328 327 327 326 324 327 327 327 327 327 328 326 327 327
328 333 338 340 341 341 341 341 342 344 344 342 341 340 340 340 340 340 338 335 335 334 333 332 331 331 330 329 328 328 326 326 326 327 326 325 326 326 327 326 326 329 328
339 341 342 342 341 342 344 344 344 343 341 341 340 340 340 339 339 336 334 333 333 333 332 331 331 330 328 328 329 327 325 327 327 327 327 326 324 325 325 325 324 325 327
342 343 343 344 344 345 345 343 341 341 340 341 341 341 340 339 336 334 331 332 332 332 332 332 331 329 329 330 329 327 326 327 328 326 326 325 324 324 324 323 323 323 324
344 343 344 344 344 343 342 341 342 340 341 340 339 338 337 335 332 330 331 331 332 332 332 332 331 330 330 329 329 328 327 327 327 326 325 325 325 323 322 322 323 324 322
341 340 339 338 337 338 338 339 339 337 337 336 335 334 333 332 332 333 333 332 332 332 331 331 330 329 329 330 330 329 327 327 327 327 325 324 324 324 323 322 323 323 321
339 337 336 335 334 335 336 336 335 333 332 331 331 330 330 331 331 331 330 330 330 330 330 329 329 328 328 330 330 330 328 327 327 327 328 326 325 324 324 323 323 323 323
337 336 335 332 331 330 330 331 331 330 330 329 328 328 328 328 329 330 331 330 329 328 329 328 327 326 328 329 329 329 328 326 326 326 326 326 326 324 323 323 323 322 321
336 334 331 332 331 331 331 331 331 331 329 327 326 326 327 329 330 331 330 329 329 328 329 328 326 327 328 329 329 328 326 325 326 325 325 325 324 323 323 323 323 322 321
333 331 330 330 331 330 331 331 330 329 327 326 326 326 327 327 328 329 328 328 328 328 328 328 329 329 329 329 329 328 326 324 324 324 324 323 323 323 323 323 323 323 322
329 328 328 328 329 330 330 330 330 328 326 325 325 323 323 325 326 327 327 327 327 328 327 327 328 328 327 327 327 326 325 324 323 323 322 322 322 322 323 323 323 322 322
328 329 329 330 330 330 330 329 328 327 324 323 323 323 324 326 326 325 326 326 326 326 325 325 325 326 327 326 326 326 324 323 323 322 321 322 322 323 322 322 322 321 321
328 329 330 330 329 329 329 329 329 327 324 323 323 323 323 324 326 326 325 325 325 325 325 326 326 326 325 325 323 323 323 322 323 322 321 322 322 322 322 322 321 320 321
328 329 329 328 328 328 328 328 329 328 328 324 323 323 323 323 324 325 325 324 324 324 324 323 322 322 321 321 321 322 322 322 322 321 321 321 321 321 321 321 321 320 320
328 327 326 325 324 324 325 323 328 329 328 328 327 325 324 324 324 324 324 323 323 323 321 321 320 320 320 320 320 320 320 321 321 321 321 321 321 321 320 320 320 320 320
329 326 325 325 324 322 321 323 320 323 329 328 326 325 324 323 323 322 322 321 320 321 321 320 320 320 320 320 320 319 319 320 321 321 321 321 321 321 320 319 320 320 320
329 328 326 325 325 324 324 323 323 326 323 323 324 324 322 321 321 321 321 321 321 321 321 320 320 320 321 321 320 320 320 320 320 320 321 321 321 321 321 320 320 320 320
329 328 328 327 326 325 324 324 325 324 321 321 322 322 321 321 320 321 322 321 321 321 320 320 320 320 320 321 321 320 320 320 320 320 320 320 321 321 321 322 320 320 320
330 329 328 327 325 324 323 323 322 322 321 320 319 320 319 320 320 321 322 324 323 322 321 321 321 321 322 321 322 322 320 321 320 320 320 320 321 321 321 322 322 322 322
330 329 328 326 325 323 322 322 323 323 322 320 317 319 321 321 321 321 323 323 324 324 324 324 325 324 324 325 323 323 322 322 321 321 321 321 321 322 323 323 322 322 323
329 328 327 327 326 324 323 323 322 322 320 319 319 320 321 321 320 320 316 316 317 318 319 321 322 323 323 324 325 325 325 324 324 324 324 324 324 324 324 324 324 325 324
329 329 328 327 326 325 324 323 322 322 320 321 321 321 320 319 316 312 310 310 311 312 313 314 314 315 316 318 320 322 323 324 323 323 324 325 326 326 325 325 325 325 324
328 328 328 327 326 325 325 323 322 322 322 318 317 315 313 311 309 306 305 305 307 307 308 308 308 309 311 313 314 316 318 319 320 322 324 322 322 320 321 320 318 316 315
324 324 323 324 323 323 322 321 314 312 310 309 307 306 303 302 302 301 301 300 301 302 302 303 302 302 303 306 307 308 309 313 314 315 314 314 313 312 311 309 307 305 304
316 317 316 315 315 315 312 308 306 305 303 302 301 300 300 298 296 296 296 297 297 296 295 295 295 296 297 298 300 301 302 303 303 304 303 303 301 300 300 300 300 300 300
Wind_Speed
33 38 38 37 34 29 27 23 26 23 19 25 25 22 18 19 19 16 17 17 18 17 15 14 13 12 13 11 10 11 10 8 3 2 2 3 5 7 10 11 12 12 12
29 32 31 29 27 25 22 25 23 21 23 27 25 21 21 21 17 18 18 17 18 17 15 14 14 13 12 10 9 9 9 8 6 4 10 6 9 7 10 12 13 12 11
23 27 27 28 28 26 24 20 20 24 25 24 22 21 22 20 20 19 18 17 16 16 16 16 15 14 13 13 12 10 8 7 9 10 8 8 13 12 14 14 13 12 10
26 29 30 29 26 24 23 24 24 25 24 24 23 22 21 20 21 19 17 15 15 15 16 16 15 16 16 15 14 13 10 9 13 15 14 14 13 15 17 19 15 12 13
23 24 21 26 26 26 27 26 27 27 26 26 24 22 22 23 20 17 14 15 13 14 16 17 16 15 14 16 16 16 14 16 19 15 12 12 12 14 14 13 17 16 14
19 17 25 26 26 27 29 32 30 28 27 26 24 22 20 19 17 14 14 14 12 14 16 16 15 15 15 15 16 16 18 21 15 14 9 13 12 15 17 20 19 13 4
21 21 24 28 27 27 30 33 34 30 27 25 21 19 18 15 14 13 13 11 11 12 13 13 12 12 12 16 15 14 17 17 20 25 22 19 17 20 23 21 16 16 7
20 23 27 28 29 30 31 32 32 28 25 22 19 18 17 15 13 11 10 8 9 9 11 12 12 12 12 15 18 17 17 16 16 19 21 23 22 20 20 23 22 16 18
22 25 29 30 27 28 29 29 29 28 24 23 20 18 15 12 10 9 10 10 9 9 10 12 12 11 8 15 19 18 16 15 13 12 12 17 16 19 21 25 22 20 6
28 28 28 29 29 29 31 30 27 27 24 21 17 13 13 13 10 10 11 12 11 10 12 12 10 13 12 14 19 21 19 14 14 12 11 15 16 14 19 22 24 18 13
29 30 28 32 32 30 28 28 29 26 23 19 18 15 13 10 10 10 10 11 13 13 16 15 13 9 9 11 14 17 17 17 15 15 18 19 18 19 21 21 23 22 19
29 30 32 32 29 30 30 28 27 26 22 17 17 15 11 10 10 9 8 10 13 18 18 16 15 12 11 11 12 12 15 14 15 18 19 18 18 19 18 17 19 18 18
30 30 29 29 29 30 31 26 25 22 20 16 14 13 12 10 9 9 10 9 10 15 16 16 14 13 13 11 10 14 15 13 16 17 17 16 17 18 16 14 13 13 13
26 26 24 26 25 27 27 27 26 20 16 15 14 13 13 11 11 11 11 10 11 16 18 18 17 14 13 16 18 14 12 14 16 15 15 15 15 15 16 15 14 14 13
27 25 23 27 28 25 23 19 22 21 22 20 16 16 15 13 12 13 14 14 16 19 20 19 18 19 19 17 14 12 11 12 14 15 15 14 14 14 14 13 13 15 9
23 21 24 26 23 25 23 16 16 16 15 13 14 15 14 13 13 13 13 13 15 20 19 19 16 15 15 13 12 10 9 10 12 12 14 14 14 13 13 12 11 14 14
23 23 24 25 23 19 16 18 15 10 12 11 12 13 15 17 14 13 15 18 18 17 18 16 15 13 13 13 12 11 11 10 12 12 14 15 14 13 13 13 12 13 15
26 28 25 22 22 20 20 17 18 17 16 18 17 18 17 15 16 18 17 14 12 10 13 15 15 14 12 12 12 11 11 11 12 12 14 15 14 14 12 12 15 13 14
26 24 24 21 20 20 19 19 17 20 20 23 22 20 17 17 19 19 10 9 9 8 10 12 13 13 11 9 10 10 12 13 14 14 14 14 14 14 12 12 13 15 14
25 25 24 26 23 21 20 17 17 20 19 19 17 20 18 19 18 12 10 9 7 7 8 9 9 10 9 9 9 9 10 10 12 12 13 14 15 14 15 13 14 16 19
24 24 27 25 22 21 19 18 18 18 18 17 19 19 18 21 18 10 11 14 10 9 5 5 4 6 5 6 9 9 10 10 11 12 11 13 15 15 15 16 19 21 22
24 24 24 25 25 23 21 21 19 19 19 22 21 19 17 18 14 11 13 15 15 14 12 11 11 10 7 7 8 9 10 10 9 10 11 13 15 18 19 20 22 24 24
27 26 23 23 25 27 22 19 19 19 19 18 20 20 19 18 16 16 16 16 16 17 16 15 15 14 11 8 5 5 8 9 8 7 8 8 10 14 17 16 11 3 3
30 30 29 26 25 24 22 21 23 23 20 21 22 22 22 20 19 18 18 19 20 21 21 22 22 21 18 17 15 11 8 5 4 2 2 5 8 10 12 12 10 10 10
30 29 27 29 26 27 26 24 25 27 25 23 24 24 23 22 22 22 24 25 26 27 27 26 27 26 25 25 23 20 17 16 14 13 13 13 14 14 13 14 14 15 15
28 30 30 28 30 31 30 28 26 27 26 26 26 25 25 26 26 27 28 29 31 32 32 31 30 29 29 28 26 24 24 22 21 19 20 20 21 20 18 17 17 16 15
Wind_Direction
241 238 231 231 234 233 230 227 213 204 198 187 182 182 184 183 182 186 187 192 189 186 193 196 193 195 196 200 209 205 205 197 156 133 185 179 147 134 137 144 155 164 170
235 226 221 223 212 199 195 196 195 194 189 182 185 182 185 185 188 191 184 188 188 184 185 190 195 198 204 204 194 192 200 197 185 145 142 124 142 137 137 147 151 156 165
213 199 186 182 178 178 182 185 187 182 180 179 177 179 180 181 182 183 185 189 191 194 195 197 204 206 202 197 196 193 199 195 205 159 134 132 128 140 129 141 146 142 142
182 170 165 171 174 174 176 174 169 170 166 170 175 174 174 176 178 183 184 188 197 202 206 211 213 216 215 205 193 192 185 157 152 132 123 123 126 141 141 128 121 130 137
160 153 155 168 173 171 166 162 165 162 163 167 165 169 170 177 179 181 190 195 198 205 211 219 223 219 224 206 196 188 182 155 142 139 127 125 128 139 138 143 125 138 134
143 141 154 159 160 154 154 159 159 159 154 152 156 161 166 173 180 185 193 198 207 216 217 222 219 215 220 197 201 202 195 172 157 148 144 141 146 156 156 151 141 132 101
140 145 141 140 138 143 149 148 147 149 149 151 160 170 173 179 183 190 196 208 217 218 211 200 196 204 201 184 192 198 200 201 199 182 165 173 160 167 163 159 156 146 130
140 139 132 127 122 131 137 141 145 145 151 151 155 162 158 158 167 176 183 188 195 201 198 195 195 186 192 190 185 188 191 192 201 196 194 185 179 174 181 169 167 151 142
151 140 129 130 131 133 135 142 147 149 147 146 150 148 150 143 153 163 172 171 171 173 166 174 179 170 213 189 182 170 174 182 194 198 209 192 181 175 178 167 162 141 131
143 131 132 140 141 142 146 149 151 151 145 141 139 141 143 139 141 155 165 162 147 151 166 178 189 190 191 182 174 166 162 164 170 167 170 178 174 180 180 184 173 150 140
131 134 138 145 148 151 148 150 150 142 137 133 130 130 128 137 147 153 162 159 148 148 159 148 145 138 143 167 176 166 162 152 152 152 157 162 166 171 181 190 185 189 174
136 142 144 145 145 149 147 141 144 141 131 122 117 123 128 130 131 140 141 156 151 141 140 137 137 151 159 161 162 158 148 153 154 155 157 164 170 178 185 188 194 197 196
139 140 142 146 150 150 143 141 134 140 128 129 131 134 139 139 129 130 134 150 163 156 151 145 151 160 159 157 162 159 156 160 163 156 156 166 179 186 184 181 191 201 201
133 133 130 132 133 144 151 154 151 140 130 137 147 148 149 147 148 149 147 150 150 144 140 140 143 145 148 146 146 157 159 161 170 164 163 175 181 183 181 185 180 187 196
133 133 130 133 141 139 142 149 156 163 163 155 161 160 159 161 168 167 161 154 151 148 143 139 136 132 134 145 148 146 153 160 164 173 174 172 177 181 179 183 190 184 190
129 131 133 134 136 144 146 140 160 164 174 175 162 160 163 165 160 160 163 166 163 159 141 136 133 136 140 148 144 141 155 166 170 172 177 179 179 180 178 179 192 199 206
127 130 137 141 144 143 143 143 126 113 145 139 144 145 149 144 146 146 140 144 151 151 137 139 141 143 148 158 162 164 166 178 184 185 186 186 186 182 185 195 197 207 215
138 146 145 147 150 148 151 145 139 135 122 124 133 137 136 140 141 140 138 139 138 147 152 153 157 165 167 170 173 174 180 181 188 193 193 195 193 190 194 206 210 211 212
144 144 151 152 153 152 149 137 132 130 126 130 134 138 143 142 135 131 100 125 145 145 163 165 168 170 174 179 182 185 187 186 188 191 196 203 207 212 215 217 217 224 236
149 152 149 144 138 128 124 121 123 125 123 127 133 142 139 140 140 127 79 92 121 132 154 164 174 184 190 196 196 193 192 196 194 198 207 214 214 218 222 225 230 238 244
148 142 139 129 123 121 117 114 114 117 117 115 134 147 149 150 144 103 80 89 93 110 127 154 169 182 190 191 190 194 198 195 196 202 209 219 224 232 238 246 255 259 264
141 136 133 131 131 126 116 117 119 119 121 127 136 142 151 144 131 105 90 86 85 94 107 116 117 120 132 163 191 210 215 211 216 226 235 245 252 254 256 257 263 269 272
140 136 127 125 133 132 124 128 131 128 131 130 132 135 137 129 119 105 96 93 94 93 94 98 96 93 90 92 103 147 177 191 197 213 225 235 258 260 252 255 260 230 123
139 135 132 128 132 128 126 124 121 116 112 109 115 126 128 124 114 103 100 99 100 99 97 94 88 86 86 83 78 84 102 115 100 95 149 148 121 107 109 103 89 72 57
133 124 123 128 124 117 116 114 108 107 101 99 102 108 109 115 113 109 106 102 100 98 93 91 88 85 82 82 81 81 91 99 96 97 99 98 93 89 91 93 86 76 70
123 124 122 118 117 118 114 106 103 108 104 110 110 112 114 110 109 110 109 105 100 96 92 88 85 84 82 79 79 80 81 81 82 86 88 87 82 74 70 70 71 66 69